Regional Weather Roundup
Issued by NWS

Home | Current Version | Previous Version | Graphics & Text | Print | Product List | Glossary On
Versions: 1 2 3 4 5 6 7 8 9 10 11 12 13 14 15 16 17 18 19 20 21 22 23 24 25 26 27 28 29 30 31 32 33 34 35 36 37 38 39 40 41 42 43 44 45 46 47 48 49 50
000
ASUS43 KIND 191809
RWRIN

WEATHER ROUNDUP FOR INDIANA
NATIONAL WEATHER SERVICE INDIANAPOLIS IN
200 PM EDT SAT APR 19 2014

NOTE: "FAIR" INDICATES FEW OR NO CLOUDS BELOW 12,000 FEET WITH NO
SIGNIFICANT WEATHER AND/OR OBSTRUCTIONS TO VISIBILITY.

* - STATION DOES NOT REPORT WEATHER SUCH AS PRECIPITATION OR FOG.

+ - STATION NOT QUALITY CONTROLLED BY THE NATIONAL WEATHER SERVICE.
    USE DATA WITH CAUTION...ESPECIALLY DEWPOINT AND RELATIVE
    HUMIDITY OBSERVATIONS.

INZ001>003-010>013-019-020-191900-
NORTHWEST INDIANA

CITY           SKY/WX    TMP DP  RH WIND       PRES   REMARKS
GARY /AIRPORT/ MOSUNNY   55  39  54 NE8       30.34F
LA PORTE +     SUNNY     60  35  39 E13       30.35F
6HR MIN TEMP:  37; 6HR MAX TEMP:  60;

MICHIGAN CITY+ SUNNY     61  32  33 SE7       30.34F
MONTICELLO +   SUNNY     60  40  48 E9G17     30.32F
RENSSELAER +   SUNNY     63  34  34 E9G21     30.33S
VALPARAISO     SUNNY     63  36  36 E14G22    30.33F
6HR MIN TEMP:  35; 6HR MAX TEMP:  63;


$$

LMZ046-743>745-191900-
SOUTHERN LAKE MICHIGAN

STATION/POSITION TIME  TEMP WIND        PRES
                       AIR  DIR/SP/G
                 (UTC) (F)  (DEG/KT/KT) (MB)
MICHIGAN CITY    1800   58  110/  9/ 14   N/A

$$

INZ004-005-014>016-021>024-191900-
NORTH CENTRAL INDIANA

CITY           SKY/WX    TMP DP  RH WIND       PRES   REMARKS
ELKHART        SUNNY     57  36  44 SE9       30.37F
GOSHEN         SUNNY     58  37  45 SE9       30.37F
6HR MIN TEMP:  40; 6HR MAX TEMP:  59;

LOGANSPORT +   SUNNY     61  36  39 E14       30.34F
PERU/GRISSOM   SUNNY     61  41  47 E13       30.33F
6HR MIN TEMP:  41; 6HR MAX TEMP:  61;

ROCHESTER +    SUNNY     61  37  41 E13       30.35F
SOUTH BEND     SUNNY     60  36  40 E15       30.36F
6HR MIN TEMP:  39; 6HR MAX TEMP:  60;

WARSAW +       SUNNY     57  37  47 SE9G16    30.36F

$$

INZ006>009-017-018-025>027-191900-
NORTHEAST INDIANA

CITY           SKY/WX    TMP DP  RH WIND       PRES   REMARKS
ANGOLA *+      SUNNY     54  36  50 SE12      30.38F
AUBURN +       SUNNY     55  36  47 E9G18     30.39F
FORT WAYNE     MOSUNNY   57  37  47 E17G25    30.37F
6HR MIN TEMP:  39; 6HR MAX TEMP:  57;


$$

INZ028-029-035-036-043>045-051>053-191900-
WEST CENTRAL INDIANA

CITY           SKY/WX    TMP DP  RH WIND       PRES   REMARKS
GREENCASTLE +  SUNNY     66  39  37 E12G17    30.29F
LAFAYETTE      SUNNY     63  38  39 E18       30.31F
6HR MIN TEMP:  37; 6HR MAX TEMP:  63;

TERRE HAUTE    SUNNY     69  36  29 E9        30.28F
6HR MIN TEMP:  42; 6HR MAX TEMP:  69;


$$

INZ030>032-037>040-046>048-054>057-064-065-191900-
CENTRAL INDIANA

CITY           SKY/WX    TMP DP  RH WIND       PRES   REMARKS
ANDERSON       SUNNY     61  37  41 E17       30.33F
CP ATTERBURY + SUNNY     66  36  32 NE10G18   30.29F
COLUMBUS       SUNNY     66  37  34 E14       30.29F
INDIANAPOLIS   MOSUNNY   64  39  39 E10G18    30.29F
6HR MIN TEMP:  43; 6HR MAX TEMP:  64;

-EAGLE CREEK   SUNNY     64  40  41 E9        30.29F
6HR MIN TEMP:  43; 6HR MAX TEMP:  64;

KOKOMO *+        N/A     61  41  48 E15G21    30.33
MARION +       SUNNY     59  37  44 E14       30.34F
MT COMFORT *+  SUNNY     64  41  42 E12G18    30.31F
SHELBYVILLE    SUNNY     69  37  30 NE14      30.29F
6HR MIN TEMP:  45; 6HR MAX TEMP:  69;

ZIONSVILLE +   SUNNY     64  36  35 E15       30.32F
6HR MIN TEMP:  42; 6HR MAX TEMP:  64;


$$

INZ033-034-041-042-049-050-058-059-191900-
EAST CENTRAL INDIANA

CITY           SKY/WX    TMP DP  RH WIND       PRES   REMARKS
MUNCIE         SUNNY     61  39  44 E13       30.33F
6HR MIN TEMP:  42; 6HR MAX TEMP:  61;


$$

INZ060-061-067>069-081>083-085>088-191900-
SOUTHWEST INDIANA

CITY           SKY/WX    TMP DP  RH WIND       PRES   REMARKS
EVANSVILLE     SUNNY     73  38  27 NE8       30.24F
6HR MIN TEMP:  52; 6HR MAX TEMP:  73;

HUNTINGBURG *+ SUNNY     72  39  30 E10       30.24F
6HR MIN TEMP:  48; 6HR MAX TEMP:  72;

WASHINGTON +   SUNNY     71  38  30 E9        30.25F
6HR MIN TEMP:  46; 6HR MAX TEMP:  71;


$$

INZ062-063-066-070>080-084-089>092-191900-
SOUTH CENTRAL AND SOUTHEAST INDIANA

CITY           SKY/WX    TMP DP  RH WIND       PRES   REMARKS
BLOOMINGTON    SUNNY     69  32  25 NE7G20    30.26F
6HR MIN TEMP:  45; 6HR MAX TEMP:  70;


$$




USA.gov is the U.S. government's official web portal to all federal, state and local government web resources and services.